RYR4982 LGTS-LGSA

Flight info

Callsign RYR4982
Flight time 0h 53m
Altitude 31000
Route LEKPO1B LEKPO UL617 SKP UM749 ATV UP169 MANOK UL612 RUSOS RUSOS2G
Aircraft B38M/M-SDE1FGHILORVWXY/HB1

Departure

Time 2026-05-05 15:35
Airport Thessaloniki Macedonia International Airport (LGTS)

Arrival

Time 2026-05-05 16:28
Airport Chania International Airport (LGSA)
Time Latitude Longitude Altitude Speed Heading
2026-05-05 15:01 40.52134 22.98216 31 ft 0 kts 15°
2026-05-05 15:27 40.52114 22.98209 31 ft 2 kts 14°
2026-05-05 15:27 40.52093 22.98196 31 ft 4 kts 51°
2026-05-05 15:27 40.52089 22.98170 31 ft 3 kts 104°
2026-05-05 15:27 40.52094 22.98142 31 ft 1 kts 104°
2026-05-05 15:31 40.52092 22.98151 31 ft 4 kts 103°
2026-05-05 15:31 40.52083 22.98201 31 ft 7 kts 104°
2026-05-05 15:32 40.52069 22.98278 31 ft 10 kts 105°
2026-05-05 15:32 40.52048 22.98379 31 ft 13 kts 104°
2026-05-05 15:32 40.52025 22.98506 31 ft 16 kts 104°
2026-05-05 15:32 40.51998 22.98644 31 ft 11 kts 104°
2026-05-05 15:33 40.51948 22.98679 31 ft 10 kts 193°
2026-05-05 15:33 40.51881 22.98657 31 ft 8 kts 194°
2026-05-05 15:33 40.51834 22.98694 31 ft 9 kts 140°
2026-05-05 15:33 40.51767 22.98702 31 ft 11 kts 196°
2026-05-05 15:34 40.51698 22.98676 31 ft 7 kts 194°
2026-05-05 15:34 40.51687 22.98621 31 ft 9 kts 280°
2026-05-05 15:34 40.51726 22.98408 31 ft 55 kts 283°
2026-05-05 15:34 40.51874 22.97617 31 ft 120 kts 284°
2026-05-05 15:35 40.52125 22.96321 63 ft 166 kts 284°
2026-05-05 15:35 40.52439 22.94855 662 ft 168 kts 283°
2026-05-05 15:35 40.52754 22.93347 1274 ft 176 kts 283°
2026-05-05 15:35 40.53085 22.91680 1673 ft 202 kts 282°
2026-05-05 15:36 40.53462 22.89809 2153 ft 222 kts 283°
2026-05-05 15:36 40.53672 22.88473 2525 ft 233 kts 272°
2026-05-05 15:36 40.53237 22.86364 2962 ft 252 kts 235°
2026-05-05 15:36 40.51835 22.84951 3633 ft 261 kts 199°
2026-05-05 15:37 40.50009 22.84836 4295 ft 272 kts 166°
2026-05-05 15:37 40.48345 22.86044 5018 ft 276 kts 142°
2026-05-05 15:37 40.46742 22.87475 5688 ft 282 kts 148°
2026-05-05 15:37 40.45066 22.88844 6439 ft 284 kts 148°
2026-05-05 15:38 40.43379 22.90218 7156 ft 287 kts 148°
2026-05-05 15:38 40.41667 22.91612 7867 ft 290 kts 148°
2026-05-05 15:38 40.39941 22.93013 8581 ft 293 kts 148°
2026-05-05 15:38 40.38194 22.94430 9314 ft 296 kts 148°
2026-05-05 15:39 40.36433 22.95860 10024 ft 300 kts 148°
2026-05-05 15:39 40.34622 22.97323 10425 ft 314 kts 148°
2026-05-05 15:39 40.32713 22.98848 10746 ft 327 kts 148°
2026-05-05 15:39 40.30754 23.00421 11293 ft 331 kts 147°
2026-05-05 15:40 40.28784 23.02016 11874 ft 335 kts 147°
2026-05-05 15:40 40.26797 23.03626 12440 ft 339 kts 147°
2026-05-05 15:40 40.24785 23.05257 13012 ft 342 kts 147°
2026-05-05 15:40 40.22747 23.06910 13543 ft 347 kts 147°
2026-05-05 15:41 40.20711 23.08560 14051 ft 350 kts 147°
2026-05-05 15:41 40.18631 23.10245 14534 ft 353 kts 147°
2026-05-05 15:41 40.16572 23.11912 15002 ft 356 kts 147°
2026-05-05 15:41 40.14615 23.13496 15651 ft 358 kts 147°
2026-05-05 15:42 40.12485 23.15219 16340 ft 363 kts 147°
2026-05-05 15:42 40.11138 23.16238 16723 ft 367 kts 153°
2026-05-05 15:42 40.08769 23.17449 17391 ft 370 kts 159°
2026-05-05 15:42 40.06430 23.18593 17957 ft 375 kts 158°
2026-05-05 15:43 40.03988 23.19794 18518 ft 378 kts 158°
2026-05-05 15:43 40.01506 23.21015 19002 ft 382 kts 158°
2026-05-05 15:43 39.99002 23.22247 19483 ft 386 kts 159°
2026-05-05 15:43 39.96470 23.23492 19938 ft 390 kts 159°
2026-05-05 15:44 39.93917 23.24747 20408 ft 394 kts 159°
2026-05-05 15:44 39.91345 23.26011 20863 ft 397 kts 159°
2026-05-05 15:44 39.88742 23.27289 21307 ft 401 kts 159°
2026-05-05 15:44 39.86123 23.28573 21739 ft 404 kts 159°
2026-05-05 15:45 39.83475 23.29871 22159 ft 408 kts 159°
2026-05-05 15:45 39.80855 23.31155 22567 ft 411 kts 160°
2026-05-05 15:45 39.78132 23.32487 22971 ft 414 kts 160°
2026-05-05 15:45 39.75457 23.33795 23349 ft 418 kts 160°
2026-05-05 15:46 39.72722 23.35130 23702 ft 421 kts 160°
2026-05-05 15:46 39.69970 23.36472 24016 ft 424 kts 160°
2026-05-05 15:46 39.67198 23.37823 24304 ft 427 kts 160°
2026-05-05 15:46 39.64412 23.39179 24609 ft 430 kts 160°
2026-05-05 15:47 39.61604 23.40544 24904 ft 432 kts 160°
2026-05-05 15:47 39.58778 23.41918 25186 ft 435 kts 160°
2026-05-05 15:47 39.55944 23.43294 25479 ft 438 kts 160°
2026-05-05 15:47 39.53077 23.44685 25729 ft 441 kts 160°
2026-05-05 15:48 39.50189 23.46084 25951 ft 445 kts 161°
2026-05-05 15:48 39.47278 23.47494 26267 ft 447 kts 161°
2026-05-05 15:48 39.44352 23.48909 26556 ft 450 kts 161°
2026-05-05 15:48 39.41413 23.50333 26829 ft 453 kts 161°
2026-05-05 15:49 39.38452 23.51768 27111 ft 455 kts 161°
2026-05-05 15:49 39.35475 23.53209 27364 ft 458 kts 161°
2026-05-05 15:49 39.32497 23.54649 27627 ft 460 kts 161°
2026-05-05 15:49 39.29487 23.56102 27850 ft 463 kts 161°
2026-05-05 15:50 39.26452 23.57562 28077 ft 466 kts 161°
2026-05-05 15:50 39.23409 23.59026 28317 ft 468 kts 161°
2026-05-05 15:50 39.20349 23.60496 28548 ft 470 kts 161°
2026-05-05 15:50 39.17227 23.61694 28746 ft 468 kts 175°
2026-05-05 15:51 39.14001 23.62145 28970 ft 468 kts 177°
2026-05-05 15:51 39.10765 23.62654 29131 ft 471 kts 177°
2026-05-05 15:51 39.07505 23.63154 29351 ft 472 kts 177°
2026-05-05 15:51 39.04244 23.63641 29570 ft 473 kts 178°
2026-05-05 15:52 39.00966 23.64126 29818 ft 473 kts 178°
2026-05-05 15:52 38.97696 23.64610 30065 ft 474 kts 178°
2026-05-05 15:52 38.94417 23.65094 30280 ft 474 kts 178°
2026-05-05 15:52 38.91149 23.65576 30526 ft 473 kts 178°
2026-05-05 15:53 38.87882 23.66057 30789 ft 471 kts 178°
2026-05-05 15:53 38.84684 23.66528 31005 ft 471 kts 178°
2026-05-05 15:53 38.81430 23.67006 31055 ft 469 kts 178°
2026-05-05 15:54 38.74953 23.67957 31036 ft 468 kts 178°
2026-05-05 15:54 38.68525 23.68900 31014 ft 466 kts 178°
2026-05-05 15:55 38.62070 23.69844 31023 ft 467 kts 178°
2026-05-05 15:55 38.55630 23.70784 31036 ft 467 kts 178°
2026-05-05 15:56 38.49166 23.71726 31043 ft 467 kts 178°
2026-05-05 15:56 38.42703 23.72666 31040 ft 467 kts 178°
2026-05-05 15:57 38.36244 23.73604 31047 ft 467 kts 178°
2026-05-05 15:57 38.29835 23.74533 31037 ft 467 kts 178°
2026-05-05 15:58 38.23335 23.75474 31044 ft 468 kts 178°
2026-05-05 15:58 38.16898 23.76405 31024 ft 469 kts 178°
2026-05-05 15:59 38.10435 23.77340 31044 ft 469 kts 178°
2026-05-05 15:59 38.05041 23.78119 31027 ft 469 kts 178°
2026-05-05 16:00 37.98546 23.79056 31028 ft 469 kts 178°
2026-05-05 16:01 37.84082 23.81247 31049 ft 469 kts 177°
2026-05-05 16:01 37.77608 23.82293 31043 ft 468 kts 177°
2026-05-05 16:02 37.71152 23.83330 31041 ft 467 kts 177°
2026-05-05 16:02 37.65891 23.84604 31030 ft 471 kts 162°
2026-05-05 16:03 37.59671 23.87182 31051 ft 471 kts 166°
2026-05-05 16:03 37.52354 23.89867 31034 ft 471 kts 167°
2026-05-05 16:04 37.46067 23.92143 31045 ft 470 kts 167°
2026-05-05 16:04 37.40834 23.94033 31047 ft 470 kts 167°
2026-05-05 16:05 37.34550 23.96299 31048 ft 470 kts 167°
2026-05-05 16:05 37.30351 23.97811 31047 ft 470 kts 167°
2026-05-05 16:06 37.21643 24.00941 31047 ft 469 kts 167°
2026-05-05 16:06 37.15404 24.03179 30925 ft 470 kts 167°
2026-05-05 16:06 37.12266 24.04303 30171 ft 474 kts 167°
2026-05-05 16:07 37.09034 24.05460 28842 ft 490 kts 166°
2026-05-05 16:07 37.05737 24.06639 27997 ft 493 kts 166°
2026-05-05 16:07 37.02460 24.07810 27509 ft 488 kts 166°
2026-05-05 16:07 36.99207 24.08971 26990 ft 483 kts 166°
2026-05-05 16:08 36.95987 24.10119 26431 ft 480 kts 166°
2026-05-05 16:08 36.92786 24.11260 25896 ft 476 kts 166°
2026-05-05 16:08 36.89620 24.12387 25370 ft 473 kts 166°
2026-05-05 16:08 36.86460 24.13510 24843 ft 470 kts 166°
2026-05-05 16:09 36.83328 24.14624 24327 ft 467 kts 166°
2026-05-05 16:09 36.80218 24.15728 23807 ft 463 kts 166°
2026-05-05 16:09 36.77123 24.16826 23238 ft 460 kts 166°
2026-05-05 16:09 36.74060 24.17912 22722 ft 456 kts 166°
2026-05-05 16:10 36.71023 24.18988 22220 ft 451 kts 166°
2026-05-05 16:10 36.68012 24.20054 21685 ft 447 kts 166°
2026-05-05 16:10 36.66050 24.20748 21394 ft 444 kts 166°
2026-05-05 16:11 36.59461 24.23076 20357 ft 434 kts 166°
2026-05-05 16:11 36.50833 24.26117 18947 ft 425 kts 166°
2026-05-05 16:12 36.47996 24.27116 18518 ft 422 kts 166°
2026-05-05 16:12 36.42430 24.29073 17611 ft 415 kts 166°
2026-05-05 16:13 36.33711 24.30299 15053 ft 428 kts 176°
2026-05-05 16:13 36.30736 24.30620 14289 ft 430 kts 177°
2026-05-05 16:13 36.27763 24.30953 13715 ft 426 kts 176°
2026-05-05 16:14 36.21956 24.31608 12570 ft 416 kts 176°
2026-05-05 16:14 36.16246 24.32253 11397 ft 409 kts 175°
2026-05-05 16:15 36.10620 24.32887 10422 ft 399 kts 175°
2026-05-05 16:15 36.05318 24.33482 10299 ft 367 kts 175°
2026-05-05 16:16 36.00462 24.34026 10287 ft 335 kts 175°
2026-05-05 16:16 35.95966 24.34531 10041 ft 316 kts 175°
2026-05-05 16:17 35.91648 24.35015 9415 ft 310 kts 175°
2026-05-05 16:17 35.89507 24.35255 9090 ft 308 kts 175°
2026-05-05 16:18 35.85285 24.35729 8481 ft 302 kts 174°
2026-05-05 16:18 35.83221 24.35960 8185 ft 299 kts 174°
2026-05-05 16:18 35.79105 24.36421 7594 ft 294 kts 174°
2026-05-05 16:19 35.77077 24.36648 7301 ft 291 kts 174°
2026-05-05 16:19 35.75063 24.36873 7001 ft 289 kts 174°
2026-05-05 16:19 35.71073 24.37322 6419 ft 286 kts 173°
2026-05-05 16:20 35.67142 24.37762 5779 ft 283 kts 174°
2026-05-05 16:20 35.63214 24.38201 5094 ft 279 kts 174°
2026-05-05 16:21 35.59520 24.38612 4696 ft 250 kts 175°
2026-05-05 16:22 35.54821 24.39137 4409 ft 209 kts 175°
2026-05-05 16:22 35.51959 24.39455 4217 ft 205 kts 176°
2026-05-05 16:23 35.49118 24.39771 4039 ft 205 kts 176°
2026-05-05 16:23 35.47734 24.39605 3919 ft 194 kts 205°
2026-05-05 16:23 35.46351 24.37254 3607 ft 170 kts 268°
2026-05-05 16:24 35.46507 24.35844 3508 ft 166 kts 287°
2026-05-05 16:24 35.46861 24.34488 3370 ft 168 kts 289°
2026-05-05 16:24 35.47642 24.31821 2921 ft 165 kts 291°
2026-05-05 16:25 35.48051 24.30502 2781 ft 165 kts 291°
2026-05-05 16:25 35.48877 24.27892 2470 ft 164 kts 292°
2026-05-05 16:25 35.49300 24.26588 2235 ft 164 kts 291°
2026-05-05 16:26 35.50113 24.24106 1834 ft 143 kts 292°
2026-05-05 16:26 35.50835 24.21922 1398 ft 136 kts 292°
2026-05-05 16:27 35.51192 24.20847 1202 ft 136 kts 292°
2026-05-05 16:27 35.51585 24.19790 1020 ft 136 kts 295°
2026-05-05 16:27 35.51973 24.18724 882 ft 138 kts 289°
2026-05-05 16:27 35.52316 24.17609 673 ft 140 kts 291°
2026-05-05 16:28 35.52675 24.16514 512 ft 135 kts 291°
2026-05-05 16:28 35.52976 24.15588 487 ft 87 kts 291°
2026-05-05 16:28 35.53116 24.15167 492 ft 25 kts 292°
2026-05-05 16:28 35.53187 24.15131 494 ft 10 kts 24°
2026-05-05 16:29 35.53236 24.15157 493 ft 6 kts 22°
2026-05-05 16:29 35.53280 24.15179 496 ft 8 kts
2026-05-05 16:29 35.53317 24.15114 499 ft 14 kts 290°
2026-05-05 16:29 35.53365 24.14958 499 ft 24 kts 292°
2026-05-05 16:30 35.53431 24.14764 499 ft 25 kts 292°
2026-05-05 16:30 35.53497 24.14565 500 ft 23 kts 292°
2026-05-05 16:30 35.53547 24.14409 500 ft 12 kts 291°
2026-05-05 16:30 35.53588 24.14338 500 ft 10 kts 358°
2026-05-05 16:31 35.53657 24.14368 500 ft 9 kts 17°
2026-05-05 16:31 35.53702 24.14325 500 ft 10 kts 291°
2026-05-05 16:31 35.53730 24.14234 500 ft 12 kts 291°
2026-05-05 16:31 35.53762 24.14135 500 ft 12 kts 291°
2026-05-05 16:32 35.53790 24.14047 500 ft 10 kts 292°
2026-05-05 16:32 35.53812 24.13994 500 ft 4 kts 326°
2026-05-05 16:32 35.53834 24.13994 500 ft 3 kts 14°
2026-05-05 16:32 35.53848 24.14000 500 ft 2 kts 19°
2026-05-05 16:33 35.53860 24.14005 500 ft 3 kts 20°
2026-05-05 16:33 35.53886 24.14018 500 ft 2 kts 21°
2026-05-05 16:33 35.53887 24.14018 500 ft 0 kts 21°